Dewpoint
71 73 75 76 75 76 76 76 76 76 75 76 75 76 75 75 75 74 74 74 74 74 74 74 74 74 74 74 74 74 74 74 74 73 73 73 73 73 73 73 72 72 72 72 72 72 73 72 71 71 72 71 71 71 71 71 71 71 71 71 71 71 71 71 71 71 71 71 71 71 71 71 70 70 71 69 68 68 68 68 67 67 67 66 67
71 74 75 75 75 76 76 76 76 76 76 76 75 75 75 75 74 74 74 74 74 74 74 74 74 74 74 74 74 74 74 74 74 73 73 73 73 73 72 72 72 72 72 72 72 72 72 71 71 71 72 71 72 72 71 71 71 71 71 71 72 71 71 72 71 71 71 71 71 71 71 70 70 70 70 70 69 69 69 68 68 68 66 67 67
72 74 75 75 76 76 76 76 76 76 75 75 76 75 74 74 74 74 74 74 74 74 74 74 74 74 74 74 74 74 74 74 73 73 73 73 73 72 72 72 72 72 72 72 72 72 72 71 71 71 72 72 72 72 72 72 72 72 71 71 71 71 70 71 71 71 71 71 71 71 71 71 70 70 70 70 69 69 68 68 68 68 66 68 67
72 74 74 75 75 75 75 76 76 76 75 75 75 75 75 74 74 74 74 74 74 74 74 74 74 74 74 74 74 74 74 73 73 73 73 73 72 72 72 72 72 72 72 71 72 72 71 71 72 72 72 72 72 72 72 72 72 72 72 71 71 71 71 71 70 71 71 71 71 71 71 69 69 70 70 69 69 69 69 69 68 68 68 67 67
72 74 74 74 75 75 75 76 76 76 76 75 75 75 74 74 74 74 74 74 74 74 74 74 74 74 74 74 74 74 73 73 73 73 73 73 73 72 72 72 72 72 72 72 72 71 71 72 72 72 72 72 72 72 72 72 72 72 71 71 71 71 70 70 71 70 69 70 70 70 68 68 68 70 69 69 69 69 69 69 68 68 68 68 67
72 73 74 74 74 75 75 75 76 76 76 75 75 75 75 74 74 74 74 74 74 74 74 74 74 74 74 73 73 73 73 73 73 73 73 73 73 72 72 71 72 71 72 72 71 71 72 72 72 72 72 72 72 72 72 72 72 72 71 72 72 72 71 71 70 70 71 70 69 68 68 68 69 69 69 69 68 68 69 69 69 69 68 68 68
72 73 73 73 73 74 75 75 75 76 75 75 75 75 74 74 74 74 74 74 74 74 74 74 74 74 73 73 73 73 73 73 73 73 73 73 73 72 71 71 71 72 72 72 71 72 72 72 72 72 71 71 72 72 72 72 72 72 72 73 73 72 71 72 72 72 71 72 68 67 66 68 68 68 70 69 69 69 69 69 69 68 68 68 68
72 73 73 73 73 75 75 75 75 75 75 75 75 75 74 74 74 74 74 74 74 74 74 74 74 74 74 73 73 73 73 73 73 72 72 72 73 72 71 71 71 72 72 71 72 72 72 72 71 71 71 71 71 72 72 72 72 73 72 73 72 73 73 73 73 72 72 72 69 68 66 67 68 68 69 70 69 69 69 69 69 69 69 68 68
72 72 73 73 73 75 75 75 75 75 75 75 75 75 74 74 74 74 74 74 74 73 73 73 74 73 74 73 73 73 73 73 72 72 72 72 72 73 72 71 72 72 72 72 72 72 72 72 71 70 70 71 71 72 72 72 72 73 73 73 72 72 72 72 73 73 73 72 70 68 65 67 68 69 70 70 69 69 69 69 69 69 69 69 68
71 72 72 73 74 75 75 75 75 75 75 75 75 74 74 74 74 74 74 74 74 74 73 73 73 74 73 73 73 73 73 73 72 72 72 72 72 71 72 71 72 72 72 72 72 72 72 72 71 70 70 71 71 71 71 71 71 72 72 72 72 72 72 72 71 71 69 70 69 65 66 69 68 69 69 70 70 69 70 70 70 69 69 69 68
71 72 72 73 74 75 74 74 75 75 75 75 75 74 74 74 74 74 74 74 74 73 73 73 73 74 73 73 73 73 73 73 72 72 72 72 71 71 71 71 71 72 72 72 72 72 72 71 70 70 70 71 71 71 71 71 71 72 71 72 71 73 72 73 68 66 64 63 65 64 68 71 68 68 70 70 70 69 69 70 70 69 69 69 68
70 71 72 73 75 75 74 74 75 75 75 75 75 74 74 74 74 74 74 73 73 73 73 73 73 73 73 73 73 73 73 73 72 72 72 72 71 71 71 71 71 72 71 72 72 72 71 71 70 71 70 71 71 71 71 71 71 71 71 71 71 71 72 72 65 65 63 62 63 65 69 69 68 69 71 71 70 70 70 70 70 70 69 69 69
70 71 73 74 74 75 74 74 74 75 75 75 75 74 74 74 74 74 74 73 73 73 73 73 73 73 73 73 73 73 73 73 73 72 72 71 71 71 71 71 71 71 71 72 72 71 71 71 71 70 70 70 70 71 71 71 71 70 71 71 72 72 71 69 63 60 64 64 66 68 68 68 69 71 70 70 70 70 70 70 70 70 69 69 69
69 71 73 74 74 75 74 74 74 74 74 74 74 74 74 74 74 74 73 73 73 73 73 73 73 73 74 74 73 73 73 73 73 72 72 71 71 71 71 71 71 71 71 72 71 71 71 71 71 71 70 70 70 70 71 71 70 72 71 72 72 72 72 67 66 60 61 61 65 63 66 69 69 71 71 70 70 70 70 70 70 70 69 69 68
69 71 73 73 73 74 75 74 74 74 74 74 74 74 74 73 73 73 73 73 73 73 73 73 73 74 74 74 73 73 73 73 73 72 72 71 71 71 71 71 71 71 71 71 71 71 71 71 71 70 70 70 70 70 70 71 71 72 72 72 71 72 70 66 62 60 58 62 62 65 67 69 71 71 71 71 71 71 70 70 70 69 69 68 68
69 71 72 72 73 74 74 75 74 74 74 74 74 73 73 73 73 73 73 73 73 73 73 73 73 74 74 74 73 73 73 73 73 72 72 71 71 71 71 71 71 71 71 71 71 71 71 70 70 70 70 70 70 70 70 71 71 72 72 72 72 72 71 70 62 59 58 60 64 66 67 69 72 72 71 71 71 71 70 70 69 69 68 68 68
70 71 71 72 73 73 73 73 74 74 74 74 74 74 73 73 73 73 73 73 73 73 73 73 73 74 74 74 73 73 73 73 73 72 72 71 71 71 71 71 71 71 71 71 71 71 70 70 70 70 69 70 70 71 70 71 71 72 72 71 72 72 71 70 62 60 58 63 64 65 67 69 71 72 72 72 71 71 71 70 70 69 69 69 68
71 71 71 72 72 72 73 73 74 73 73 74 74 74 73 73 73 73 73 73 73 73 73 73 73 74 74 74 73 73 73 73 72 72 72 71 71 71 71 71 71 71 71 71 71 71 70 70 70 70 70 70 70 71 71 71 71 72 71 72 72 72 71 67 60 60 58 67 61 65 68 71 72 72 71 71 71 71 71 70 70 70 69 69 68
70 71 71 72 72 72 72 73 73 73 73 73 73 73 73 73 73 73 73 73 73 73 73 73 74 73 74 74 73 73 73 73 72 72 71 71 71 71 71 71 71 71 71 71 71 70 70 70 69 70 69 70 70 71 71 71 71 71 71 72 71 71 68 64 60 59 62 62 61 64 67 72 72 72 71 71 71 71 70 70 70 69 69 69 68
69 70 71 71 71 72 72 73 73 73 73 72 72 72 73 73 73 74 74 73 73 73 73 73 74 74 74 73 73 73 73 72 72 72 72 71 71 71 71 71 71 70 70 70 71 70 70 69 70 69 70 70 70 71 71 71 71 71 71 71 72 71 64 63 60 60 60 62 63 62 68 73 73 72 72 71 71 71 71 70 70 70 69 69 69
69 70 70 71 71 71 72 72 72 72 72 72 72 72 73 73 73 73 73 73 73 73 73 73 74 73 73 73 73 72 72 71 71 71 72 71 71 71 71 71 70 70 70 70 71 70 69 70 71 70 69 70 71 71 71 71 71 70 71 71 71 66 64 63 61 64 64 66 66 61 70 73 73 73 72 72 72 71 70 70 70 70 69 69 69
68 69 70 70 71 71 72 72 72 72 72 72 72 72 72 73 72 72 72 72 73 73 73 72 73 72 73 73 72 72 71 71 71 72 71 71 71 72 71 71 70 70 70 70 70 70 69 70 70 70 70 70 70 69 68 69 69 69 68 69 69 64 63 63 62 61 64 64 65 66 72 73 73 72 72 72 72 71 71 71 70 70 69 69 69
67 68 69 70 70 71 71 71 71 72 72 72 72 72 72 72 72 72 72 73 73 73 72 72 72 72 72 72 72 71 71 71 71 72 72 72 72 72 71 71 70 70 70 70 70 69 70 70 70 70 70 70 69 67 67 66 64 66 66 63 64 64 64 63 61 62 63 64 65 70 73 73 73 72 72 72 72 72 71 71 70 70 69 69 69
66 67 68 69 70 70 70 71 71 71 71 71 72 72 72 71 71 71 71 71 72 72 72 72 72 72 72 71 71 71 71 70 73 73 73 71 71 72 71 71 71 70 70 69 69 69 69 70 70 70 71 70 67 67 66 65 62 61 59 59 60 63 63 61 60 63 63 68 68 72 72 73 73 71 71 72 71 71 71 70 70 70 69 69 69
66 66 68 69 69 70 70 70 71 71 71 71 71 71 71 71 71 71 71 71 71 72 72 72 72 72 71 71 71 70 70 70 71 71 71 70 70 70 70 70 69 68 70 66 66 68 68 67 66 68 67 67 67 66 64 62 61 59 58 58 59 62 61 62 63 64 65 66 71 73 72 73 72 71 71 72 71 71 70 70 70 70 70 69 69
66 66 67 68 69 69 70 70 70 70 70 70 70 71 71 70 70 70 71 71 71 71 71 71 71 71 71 71 70 70 70 69 70 70 69 69 69 69 69 68 67 67 70 67 66 66 66 66 67 67 66 66 66 66 63 64 60 57 56 56 57 61 60 61 64 66 66 68 71 73 73 72 72 72 71 71 71 71 70 70 70 70 69 69 68
65 65 66 67 68 69 69 70 70 70 70 70 70 70 70 70 70 70 70 70 71 71 71 71 71 71 71 70 70 69 69 68 69 69 69 69 69 69 68 67 67 66 67 66 66 66 66 66 66 66 65 65 65 64 62 60 58 56 55 54 56 58 60 62 65 66 67 68 72 73 73 73 72 72 71 71 71 70 70 70 70 70 69 69 68
65 65 66 67 68 68 69 69 69 69 69 69 70 70 70 69 69 70 70 70 70 70 70 71 71 71 70 70 70 69 68 67 67 68 68 68 68 68 68 67 67 67 67 67 65 65 65 65 65 64 63 63 62 62 60 57 55 54 53 53 56 59 63 64 64 66 66 68 71 73 73 73 72 72 72 71 71 70 69 70 70 69 69 69 67
64 65 66 66 67 67 68 68 68 68 69 69 69 69 69 69 69 69 70 70 70 69 70 70 70 71 70 70 69 69 68 68 66 67 68 68 68 68 68 68 67 67 66 66 65 64 64 64 64 63 61 60 60 60 59 57 55 53 51 50 57 61 64 65 65 66 66 68 70 72 73 73 72 72 72 71 70 70 69 69 69 69 69 68 67
65 65 66 66 66 67 67 67 67 68 68 68 68 68 68 68 69 69 69 69 69 69 70 70 70 70 70 69 69 69 68 67 66 67 67 68 68 67 67 67 67 66 66 66 66 63 62 62 62 61 59 57 57 57 60 57 54 53 51 54 61 63 65 64 65 66 67 69 70 71 73 73 72 72 72 71 70 69 69 69 69 68 68 68 67
65 65 66 66 66 66 66 67 67 67 68 68 68 68 68 68 68 69 69 69 69 69 69 69 69 70 69 69 69 69 68 68 66 66 66 67 67 67 67 67 66 66 66 66 66 63 60 60 62 61 59 57 56 55 57 56 55 52 54 60 63 64 64 64 64 66 68 69 70 70 72 72 72 72 72 71 70 69 69 69 68 68 68 67 67
65 65 65 66 66 66 66 66 66 67 68 67 67 67 67 68 68 68 68 69 68 69 69 69 69 69 69 69 69 69 69 68 66 66 66 66 67 67 66 66 66 65 65 65 65 63 60 59 60 61 60 58 57 57 58 57 58 53 61 62 64 64 64 63 64 66 69 69 70 70 71 71 72 72 71 71 70 70 69 69 69 68 67 67 67
65 66 66 66 65 66 66 66 66 67 67 67 67 67 67 67 67 67 68 69 68 68 68 69 69 69 69 69 68 68 68 68 66 66 66 65 66 67 66 66 66 65 65 65 64 63 60 59 60 61 61 60 59 59 61 60 57 58 62 63 64 63 63 64 64 67 69 70 70 70 70 71 71 71 71 71 70 70 69 68 68 67 67 67 66
65 66 66 65 66 67 67 67 66 66 67 67 66 66 67 67 67 67 68 68 68 68 68 68 69 69 69 68 68 68 68 68 67 66 66 65 65 66 66 65 65 65 65 65 64 62 61 60 60 60 62 61 59 59 60 58 58 61 63 63 63 63 63 64 65 66 69 69 70 70 69 69 70 69 70 70 70 69 69 68 67 67 67 66 66
66 66 65 65 66 67 67 67 67 66 67 67 66 65 66 66 66 66 67 67 67 67 67 68 68 68 69 68 68 68 69 68 67 66 66 65 64 65 65 65 65 65 65 65 64 63 62 62 63 62 61 61 60 61 59 58 58 62 63 64 63 63 65 65 65 67 69 69 69 69 69 69 69 69 69 68 69 69 69 68 67 66 66 66 66
66 66 66 66 65 66 67 66 66 66 67 66 66 65 66 66 66 67 66 67 66 66 67 67 68 68 69 68 68 68 68 68 68 66 66 65 64 64 65 65 65 65 65 66 65 66 66 65 64 62 60 60 60 59 57 57 58 61 63 64 64 65 64 65 66 67 68 69 68 68 68 68 68 68 69 67 67 68 68 68 67 67 66 65 64
67 67 66 66 65 66 67 66 66 66 66 66 65 65 66 65 65 66 66 67 66 65 66 67 67 68 68 68 68 68 68 68 68 67 66 65 65 64 65 65 65 65 66 66 65 65 65 65 64 64 62 60 59 58 58 57 58 61 63 63 64 64 63 64 66 67 68 68 68 68 68 67 68 70 67 67 66 66 67 67 67 65 64 63 63
67 67 66 66 65 66 66 66 66 66 66 65 64 65 66 65 65 66 66 66 65 65 66 66 66 67 68 67 68 68 68 68 68 67 66 66 65 65 65 65 65 64 65 66 65 65 65 64 63 63 62 61 59 58 58 57 59 62 63 64 64 64 63 64 66 69 67 67 67 67 67 68 68 66 66 66 66 66 66 66 65 63 63 62 62
67 66 66 66 66 66 66 66 66 66 66 65 64 65 65 65 65 66 65 66 66 65 65 66 66 67 67 67 67 68 68 67 67 67 66 66 65 65 65 65 65 64 64 65 64 64 64 64 63 63 63 62 61 59 58 60 61 63 63 63 63 63 63 64 66 66 67 67 67 68 67 67 67 66 66 65 65 65 64 62 61 60 61 61 61
67 67 66 66 66 66 66 66 66 66 65 64 64 65 65 64 63 65 64 65 65 65 65 65 66 66 67 67 67 67 67 67 66 66 66 65 64 64 65 65 65 64 64 64 64 64 64 63 63 63 62 62 62 61 61 64 63 63 64 63 64 63 63 63 64 65 66 67 67 67 67 67 66 65 65 65 64 63 61 60 62 60 61 61 63
67 66 66 66 66 66 66 66 66 67 65 64 63 64 64 64 63 64 64 64 65 65 65 65 66 67 67 67 67 67 67 66 66 65 65 66 63 63 65 64 65 65 65 65 65 65 65 64 64 63 63 62 61 61 61 63 63 61 61 61 62 64 67 63 63 65 66 66 67 66 66 66 66 65 65 65 64 62 60 60 60 60 61 61 63
67 66 66 66 66 66 66 66 66 67 65 64 63 64 64 64 63 64 64 63 64 64 64 65 66 67 67 67 67 67 66 66 66 65 64 64 62 63 63 64 64 64 64 65 64 67 65 64 63 62 63 62 61 60 61 63 60 60 60 59 60 61 63 63 63 63 65 65 66 66 66 66 65 65 65 64 63 61 59 59 60 60 61 61 61
67 66 66 66 66 66 66 66 65 66 65 65 63 64 65 64 64 64 63 63 64 65 64 65 66 67 67 67 67 67 66 65 65 65 63 63 62 62 62 64 64 65 64 64 65 64 64 64 63 63 61 62 62 62 60 60 59 59 59 59 57 57 59 59 61 62 64 65 65 65 65 65 65 65 65 64 63 61 59 58 59 60 60 60 60
64 66 66 66 66 66 66 65 65 66 66 65 64 64 65 64 64 65 64 63 63 65 65 65 66 66 66 67 67 66 66 65 64 64 63 63 63 62 63 64 64 65 64 63 63 64 64 63 64 63 62 60 61 61 62 60 60 62 58 57 56 56 55 58 58 59 62 64 65 65 65 64 64 65 65 64 63 61 59 58 59 60 60 60 60
62 64 66 65 66 66 66 65 65 65 66 65 64 64 65 64 65 65 64 64 64 64 64 64 65 66 66 66 66 66 66 65 64 64 63 63 63 63 63 64 64 64 64 63 63 63 64 64 65 64 63 61 60 60 61 61 60 62 60 56 55 55 54 54 57 57 60 62 62 64 65 64 64 64 64 64 64 62 60 57 58 59 59 59 60
63 62 65 66 66 66 66 66 65 65 66 66 65 65 65 64 64 63 63 62 62 63 63 63 64 65 65 66 66 66 65 65 64 64 63 63 63 64 64 65 64 64 65 64 63 63 63 63 64 64 64 63 62 60 60 60 61 63 62 60 59 56 54 55 56 54 58 60 62 64 65 64 64 64 64 63 63 63 62 57 58 58 59 59 60
63 63 63 65 65 67 66 66 65 65 66 66 65 65 64 64 64 63 63 62 61 62 63 64 64 65 66 65 66 66 65 65 64 64 63 64 64 64 65 65 65 65 66 64 63 63 63 63 64 64 64 64 62 60 60 60 62 62 63 62 62 60 59 59 56 55 55 57 59 62 63 63 63 63 63 62 62 62 62 59 58 58 58 59 60
61 63 64 64 65 66 66 66 66 65 66 66 65 65 64 64 64 63 63 62 62 62 63 64 64 65 65 65 65 65 65 65 64 64 64 64 64 64 65 65 65 65 66 65 64 64 64 64 64 64 64 64 63 61 61 60 61 60 63 62 62 61 60 58 58 58 56 55 56 58 59 61 61 62 63 61 60 60 60 59 58 58 57 58 59
61 62 64 63 64 66 67 66 66 66 66 66 66 65 65 64 64 64 63 63 62 63 64 64 64 65 65 65 65 65 65 65 64 64 64 65 66 65 65 65 65 65 66 65 65 65 64 64 64 63 62 62 63 63 61 61 62 61 61 61 61 61 62 61 60 59 56 54 54 56 57 60 61 61 62 61 59 59 59 59 58 58 58 58 58
62 62 64 64 65 66 66 66 66 66 67 67 66 65 65 65 64 64 63 63 64 64 64 64 64 65 64 65 65 64 64 65 64 64 65 65 65 65 65 65 65 65 66 65 66 65 65 64 64 64 63 62 62 63 62 62 63 63 63 63 61 60 60 60 60 60 59 57 56 56 57 57 57 59 60 61 61 59 59 58 58 57 57 57 57
64 63 64 64 65 66 66 66 66 66 66 67 67 66 65 65 64 64 64 63 63 63 64 64 64 64 64 64 64 64 64 64 64 64 64 65 65 66 65 65 65 66 66 66 65 65 66 65 65 64 63 63 63 63 62 62 63 63 63 62 62 62 61 60 60 60 59 56 54 55 57 58 57 56 58 61 62 61 60 58 57 56 56 56 56